(97914) = 2000 QK90

Discovered at Socorro on 2000-08-25 by LINEAR.

Orbit

Orbit type: Main Belt

Note: WebGL enabled browser required.

epoch2024-03-31.0
epoch JD2460400.5
perihelion date2022-12-10.26234
perihelion JD2459923.76234
argument of perihelion (°)7.38476
ascending node (°)294.53167
inclination (°)3.29844
eccentricity0.1825080
perihelion distance (AU)1.7818446
Tisserand w.r.t. Jupiter3.7
ΔV w.r.t. Earth (km/sec)8.2
semimajor axis (AU)2.1796477
mean anomaly (°)146.01715
mean daily motion (°/day)0.30628410
aphelion distance (AU)2.577
period (years)3.22
P-vector [x]0.52848818
P-vector [y]-0.78179997
P-vector [z]-0.33089131
Q-vector [x]0.84732546
Q-vector [y]0.46173329
Q-vector [z]0.26237745
absolute magnitude15.92
phase slope0.15
uncertainty0
referenceMPEC 2024-E152
observations used1296
oppositions18
arc length (days)9629
first opposition used1997
last opposition used2024
residual rms (arc-secs)0.70
perturbers coarse indicatorM-v
perturbers precise indicator003Ek
first observation date used1997-10-29.0
last observation date used2024-03-10.0
computer nameMPCLINUX
JD of orbit computation2456670.842473
perihelion JD uncertainty (days)4.7657E-05
argument of perihelion uncertainty (°)7.6001E-05
ascending node uncertainty (°)7.5008E-05
inclination uncertainty (°)3.4721E-06
eccentricity uncertainty 3.7220E-08
perihelion distance uncertainty (AU)7.9996E-08
Minimum Orbit Intersection Distances (in AU)
for orbit epoch: 2460400.5, reference: E2024-EF2
Mercury1.33972
Venus1.05517
Earth0.76621
Mars0.36567
Jupiter2.62984
Saturn6.50322
Uranus15.9466
Neptune27.4977

Observations

1323 total observations over interval: 1997 10 29.49095 – 2024 03 10.54616
These data are available for download (format description).

Date (UT) J2000 RA J2000 Dec Magn Location Ref
1997 10 29.49095 01 51 49.03 +18 00 17.0 18.5 V 566 – Haleakala-NEAT/GEODSS MPS 46510
1997 10 29.50106 01 51 48.40 +18 00 12.6 18.8 V 566 – Haleakala-NEAT/GEODSS MPS 46510
1997 10 29.51059 01 51 47.74 +18 00 08.7 19.2 V 566 – Haleakala-NEAT/GEODSS MPS 46510
2000 07 07.38034 23 21 15.05 -01 44 44.2 18.5   704 – Lincoln Laboratory ETS, New Mexico MPS 19325
2000 07 07.39260 23 21 15.60 -01 44 37.8 18.9   704 – Lincoln Laboratory ETS, New Mexico MPS 19325
2000 07 07.40496 23 21 16.11 -01 44 31.8 19.4   704 – Lincoln Laboratory ETS, New Mexico MPS 19325
2000 07 07.41710 23 21 16.72 -01 44 24.7 19.5   704 – Lincoln Laboratory ETS, New Mexico MPS 19325
2000 08 03.36705 23 29 18.44 +00 50 45.4 18.5   704 – Lincoln Laboratory ETS, New Mexico MPS 18206
2000 08 03.38120 23 29 18.31 +00 50 49.1 18.6   704 – Lincoln Laboratory ETS, New Mexico MPS 18206
2000 08 03.39530 23 29 18.04 +00 50 51.3 18.5   704 – Lincoln Laboratory ETS, New Mexico MPS 18206
2000 08 03.40941 23 29 17.82 +00 50 54.0 18.3   704 – Lincoln Laboratory ETS, New Mexico MPS 18206
2000 08 03.42356 23 29 17.59 +00 50 56.8 17.7   704 – Lincoln Laboratory ETS, New Mexico MPS 18206
2000 08 25.23787 23 17 21.671 +00 56 00.36 16.30 J I02 – Cerro Tololo Observatory, La Serena--2MASS MPS 79721
2000 08 25.26944 23 17 20.31 +00 55 46.1 17.8   704 – Lincoln Laboratory ETS, New Mexico MPS 18206
2000 08 25.28235 23 17 19.64 +00 55 44.4 18.7   704 – Lincoln Laboratory ETS, New Mexico MPS 18206
2000 08 25.32113 23 17 17.52 +00 55 38.8 17.9   704 – Lincoln Laboratory ETS, New Mexico MPS 18206
2000 08 31.30643 23 11 54.93 +00 38 32.4 17.1   704 – Lincoln Laboratory ETS, New Mexico MPS 18206
2000 08 31.31962 23 11 54.13 +00 38 29.9 17.2   704 – Lincoln Laboratory ETS, New Mexico MPS 18206
2000 08 31.33279 23 11 53.37 +00 38 27.2 17.8   704 – Lincoln Laboratory ETS, New Mexico MPS 18206
2000 08 31.34594 23 11 52.58 +00 38 24.4 17.2   704 – Lincoln Laboratory ETS, New Mexico MPS 18206
2000 08 31.35910 23 11 51.82 +00 38 21.8 17.5   704 – Lincoln Laboratory ETS, New Mexico MPS 18206
2000 09 02.30465 23 10 01.62 +00 31 28.6 17.2 R 699 – Lowell Observatory-LONEOS MPS 18206
2000 09 02.32388 23 10 00.46 +00 31 24.7   699 – Lowell Observatory-LONEOS MPS 18206
2000 09 02.34310 23 09 59.30 +00 31 20.2   699 – Lowell Observatory-LONEOS MPS 18206
2000 09 02.36229 23 09 58.11 +00 31 16.0   699 – Lowell Observatory-LONEOS MPS 18206
2000 09 03.27727 23 09 05.99 +00 27 50.3 17.9   704 – Lincoln Laboratory ETS, New Mexico MPS 18206
2000 09 03.29049 23 09 05.20 +00 27 47.5 17.8   704 – Lincoln Laboratory ETS, New Mexico MPS 18206
2000 09 03.30377 23 09 04.44 +00 27 43.7 17.9   704 – Lincoln Laboratory ETS, New Mexico MPS 18206
2000 09 03.31720 23 09 03.58 +00 27 40.9 17.9   704 – Lincoln Laboratory ETS, New Mexico MPS 18206
2000 09 22.28315 22 52 09.29 -00 56 22.7 18.2   608 – Haleakala-AMOS MPS 19325
2000 09 22.29460 22 52 08.74 -00 56 25.9 18.9   608 – Haleakala-AMOS MPS 19325
2000 09 22.30535 22 52 08.23 -00 56 28.7 19.5   608 – Haleakala-AMOS MPS 19325
2000 09 23.25215 22 51 27.02 -01 00 41.6 17.6   704 – Lincoln Laboratory ETS, New Mexico MPS 19325
2000 09 23.26697 22 51 26.33 -01 00 45.0 17.7   704 – Lincoln Laboratory ETS, New Mexico MPS 19325
2000 09 23.28200 22 51 25.67 -01 00 49.3 18.3   704 – Lincoln Laboratory ETS, New Mexico MPS 19325
2000 09 23.29673 22 51 24.98 -01 00 53.0 18.6   704 – Lincoln Laboratory ETS, New Mexico MPS 19325
2000 09 23.31145 22 51 24.29 -01 00 57.5 18.6   704 – Lincoln Laboratory ETS, New Mexico MPS 19325
2000 09 24.17724 22 50 48.51 -01 04 44.5 17.5   704 – Lincoln Laboratory ETS, New Mexico MPS 19325
2000 09 24.19240 22 50 47.86 -01 04 48.4 17.5   704 – Lincoln Laboratory ETS, New Mexico MPS 19325
2000 09 24.20739 22 50 47.19 -01 04 52.3 17.2   704 – Lincoln Laboratory ETS, New Mexico MPS 19325
2000 09 24.22238 22 50 46.52 -01 04 55.9 17.3   704 – Lincoln Laboratory ETS, New Mexico MPS 19325
2000 09 24.23740 22 50 45.87 -01 04 59.9 17.3   704 – Lincoln Laboratory ETS, New Mexico MPS 19325
2000 09 25.17316 22 50 08.40 -01 09 01.7 17.6   704 – Lincoln Laboratory ETS, New Mexico MPS 19325
2000 09 25.18782 22 50 07.78 -01 09 05.7 18.1   704 – Lincoln Laboratory ETS, New Mexico MPS 19325
2000 09 25.20249 22 50 07.15 -01 09 09.4 17.7   704 – Lincoln Laboratory ETS, New Mexico MPS 19325
2000 09 25.21718 22 50 06.50 -01 09 13.4 17.6   704 – Lincoln Laboratory ETS, New Mexico MPS 19325
2000 09 25.23187 22 50 05.91 -01 09 17.2 17.5   704 – Lincoln Laboratory ETS, New Mexico MPS 19325
2000 09 25.25198 22 50 05.04 -01 09 22.2 18.6   704 – Lincoln Laboratory ETS, New Mexico MPS 19325
2000 09 25.26175 22 50 04.63 -01 09 24.4 18.1 V 691 – Steward Observatory, Kitt Peak-Spacewatch MPS 19325
2000 09 25.26669 22 50 04.43 -01 09 25.2 19.3   704 – Lincoln Laboratory ETS, New Mexico MPS 19325
2000 09 25.28403 22 50 03.69 -01 09 30.0 18.4 V 691 – Steward Observatory, Kitt Peak-Spacewatch MPS 19325
2000 09 25.29610 22 50 03.14 -01 09 35.0 19.0   704 – Lincoln Laboratory ETS, New Mexico MPS 19325
2000 09 25.30823 22 50 02.66 -01 09 36.3 18.3 V 691 – Steward Observatory, Kitt Peak-Spacewatch MPS 19325
2000 10 03.18450 22 45 51.31 -01 39 58.2 18.1   704 – Lincoln Laboratory ETS, New Mexico MPS 19325
2000 10 03.19970 22 45 50.90 -01 40 01.9 18.1   704 – Lincoln Laboratory ETS, New Mexico MPS 19325
2000 10 03.21498 22 45 50.52 -01 40 04.1 18.6   704 – Lincoln Laboratory ETS, New Mexico MPS 19325
2000 10 03.23021 22 45 50.06 -01 40 07.3 18.3   704 – Lincoln Laboratory ETS, New Mexico MPS 19325
2000 10 03.24550 22 45 49.65 -01 40 10.7 17.8   704 – Lincoln Laboratory ETS, New Mexico MPS 19325
2000 11 03.10722 22 49 35.79 -02 06 21.9 19.3   704 – Lincoln Laboratory ETS, New Mexico MPS 20995
2000 11 03.12095 22 49 36.25 -02 06 19.9 18.4   704 – Lincoln Laboratory ETS, New Mexico MPS 20995
2000 11 03.13466 22 49 36.69 -02 06 19.6 19.1   704 – Lincoln Laboratory ETS, New Mexico MPS 20995
2001 12 18.46211 09 05 05.52 +16 26 44.3 19.2   704 – Lincoln Laboratory ETS, New Mexico MPS 46510
2001 12 18.47858 09 05 05.13 +16 26 44.8 19.7   704 – Lincoln Laboratory ETS, New Mexico MPS 46510
2001 12 18.52622 09 05 04.01 +16 26 47.5 20.5   704 – Lincoln Laboratory ETS, New Mexico MPS 46510
2002 01 09.33596 08 50 12.08 +17 00 41.4 19.5   704 – Lincoln Laboratory ETS, New Mexico MPS 46510
2002 01 09.35112 08 50 11.13 +17 00 44.1 19.5   704 – Lincoln Laboratory ETS, New Mexico MPS 46510
2002 01 09.36629 08 50 10.27 +17 00 46.6 19.4   704 – Lincoln Laboratory ETS, New Mexico MPS 46510
2002 01 09.38147 08 50 09.37 +17 00 47.9 20.1   704 – Lincoln Laboratory ETS, New Mexico MPS 46510
2002 01 09.39678 08 50 08.42 +17 00 51.1 19.8   704 – Lincoln Laboratory ETS, New Mexico MPS 46510
2002 01 13.31247 08 46 11.55 +17 11 15.7 18.8   704 – Lincoln Laboratory ETS, New Mexico MPS 46510
2002 01 13.32764 08 46 10.60 +17 11 17.5 18.9   704 – Lincoln Laboratory ETS, New Mexico MPS 46510
2002 01 13.34281 08 46 09.57 +17 11 19.9 19.3   704 – Lincoln Laboratory ETS, New Mexico MPS 46510
2002 01 13.35798 08 46 08.60 +17 11 22.4 18.9   704 – Lincoln Laboratory ETS, New Mexico MPS 46510
2002 01 13.37315 08 46 07.61 +17 11 25.1 19.0   704 – Lincoln Laboratory ETS, New Mexico MPS 46510
2002 01 21.23633 08 37 28.53 +17 34 12.8 18.8   704 – Lincoln Laboratory ETS, New Mexico MPS 48921
2002 01 21.25110 08 37 27.51 +17 34 15.9 19.1   704 – Lincoln Laboratory ETS, New Mexico MPS 48921
2002 01 21.26594 08 37 26.40 +17 34 18.4 19.3   704 – Lincoln Laboratory ETS, New Mexico MPS 48921
2002 01 21.28084 08 37 25.40 +17 34 21.6 19.2   704 – Lincoln Laboratory ETS, New Mexico MPS 48921
2002 01 21.29565 08 37 24.38 +17 34 24.0 19.2   704 – Lincoln Laboratory ETS, New Mexico MPS 48921
2002 01 22.23419 08 36 19.86 +17 37 12.9 19.3   704 – Lincoln Laboratory ETS, New Mexico MPS 48921
2002 01 22.25130 08 36 18.67 +17 37 14.8 19.3   704 – Lincoln Laboratory ETS, New Mexico MPS 48921
2002 01 22.28113 08 36 16.58 +17 37 21.3 20.1   704 – Lincoln Laboratory ETS, New Mexico MPS 48921
2002 01 22.29606 08 36 15.53 +17 37 23.5 19.5   704 – Lincoln Laboratory ETS, New Mexico MPS 48921
2002 01 26.29681 08 31 37.70 +17 49 17.9 19.8   644 – Palomar Mountain/NEAT MPS 46510
